TimeMST,TemperatureF,Dew PointF,Humidity,Sea Level PressureIn,VisibilityMPH,Wind Direction,Wind SpeedMPH,Gust SpeedMPH,PrecipitationIn,Events,Conditions,WindDirDegrees,DateUTC
12:53 AM,35.1,30.9,85,30.14,10.0,Variable,4.6,-,N/A,,Overcast,0,2013-11-24 07:53:00
1:43 AM,34.0,28.9,82,30.19,10.0,SE,11.5,-,N/A,,Overcast,140,2013-11-24 08:43:00
1:53 AM,35.1,28.9,78,30.14,10.0,South,8.1,20.7,0.00,Snow,Light Snow,190,2013-11-24 08:53:00
2:53 AM,34.0,28.0,79,30.13,10.0,West,8.1,-,0.00,,Mostly Cloudy,260,2013-11-24 09:53:00
3:53 AM,33.1,28.0,82,30.14,9.0,WSW,12.7,21.9,0.00,Snow,Light Snow,240,2013-11-24 10:53:00
4:53 AM,32.0,28.0,85,30.15,6.0,SW,11.5,17.3,0.00,Snow,Light Snow,230,2013-11-24 11:53:00
5:53 AM,32.0,28.9,88,30.15,10.0,South,10.4,-,0.00,,Overcast,190,2013-11-24 12:53:00
6:20 AM,32.0,28.9,88,30.17,2.5,SW,5.8,-,0.00,Snow,Light Snow,220,2013-11-24 13:20:00
6:31 AM,30.9,28.0,89,30.17,5.0,SW,11.5,-,0.00,Snow,Light Snow,220,2013-11-24 13:31:00
6:53 AM,30.9,28.9,92,30.17,5.0,SW,10.4,-,0.00,Snow,Light Snow,220,2013-11-24 13:53:00
7:53 AM,30.9,28.0,89,30.18,10.0,SW,10.4,-,0.00,,Overcast,220,2013-11-24 14:53:00
8:53 AM,32.0,27.0,82,30.18,10.0,SSW,10.4,-,N/A,,Overcast,210,2013-11-24 15:53:00
9:53 AM,33.1,27.0,78,30.17,10.0,South,11.5,-,N/A,,Overcast,190,2013-11-24 16:53:00
10:53 AM,32.0,27.0,82,30.17,10.0,SSW,15.0,-,0.00,,Overcast,210,2013-11-24 17:53:00
11:53 AM,30.9,26.1,82,30.15,10.0,SW,12.7,-,N/A,,Overcast,220,2013-11-24 18:53:00
12:53 PM,32.0,27.0,82,30.13,10.0,SSW,15.0,-,N/A,,Overcast,210,2013-11-24 19:53:00
1:45 PM,30.9,27.0,85,30.12,2.0,SSW,9.2,-,0.00,Snow,Light Snow,210,2013-11-24 20:45:00
1:53 PM,30.0,27.0,88,30.12,1.8,SSW,10.4,-,0.00,Snow,Light Snow,210,2013-11-24 20:53:00
2:01 PM,30.0,27.0,88,30.12,2.0,SW,10.4,-,0.00,Snow,Light Snow,220,2013-11-24 21:01:00
2:09 PM,30.0,28.0,92,30.12,1.2,SSW,10.4,-,0.00,Snow,Light Snow,210,2013-11-24 21:09:00
2:40 PM,30.0,28.0,92,30.12,1.5,SSW,8.1,-,0.00,Snow,Light Snow,210,2013-11-24 21:40:00
2:53 PM,30.0,28.0,92,30.13,2.0,SW,6.9,-,0.00,Snow,Light Snow,220,2013-11-24 21:53:00
2:58 PM,30.0,28.9,96,30.12,2.0,SW,5.8,-,0.00,Snow,Light Snow,230,2013-11-24 21:58:00
3:14 PM,30.0,28.0,92,30.12,1.8,SW,4.6,-,0.00,Snow,Light Snow,230,2013-11-24 22:14:00
3:18 PM,30.0,28.0,92,30.12,2.5,SW,5.8,-,0.00,Snow,Light Snow,220,2013-11-24 22:18:00
3:27 PM,30.0,28.0,92,30.12,4.0,WSW,4.6,-,0.00,Snow,Light Snow,250,2013-11-24 22:27:00
3:53 PM,30.0,28.0,92,30.13,10.0,West,3.5,-,0.00,,Overcast,260,2013-11-24 22:53:00
4:45 PM,30.0,28.0,92,30.11,4.0,South,4.6,-,0.00,Snow,Light Snow,190,2013-11-24 23:45:00
4:53 PM,30.0,28.0,92,30.12,3.0,South,4.6,-,0.00,Snow,Light Snow,190,2013-11-24 23:53:00
5:00 PM,30.0,28.0,92,30.11,5.0,SSW,4.6,-,0.00,Snow,Light Snow,200,2013-11-25 00:00:00
5:51 PM,30.2,28.4,93,30.11,10.0,SSW,5.8,-,0.00,,Overcast,200,2013-11-25 00:51:00
5:53 PM,30.0,28.9,96,30.13,10.0,SSW,5.8,-,0.00,,Overcast,200,2013-11-25 00:53:00
6:18 PM,28.9,28.0,96,30.11,10.0,SW,3.5,-,N/A,,Overcast,230,2013-11-25 01:18:00
6:48 PM,28.4,28.4,100,30.11,2.0,SW,5.8,-,0.00,Snow,Light Snow,230,2013-11-25 01:48:00
6:53 PM,28.9,28.0,96,30.13,1.5,SW,5.8,-,0.00,Snow,Light Snow,220,2013-11-25 01:53:00
7:17 PM,28.9,28.0,96,30.10,2.5,SSW,4.6,-,0.01,Snow,Light Snow,210,2013-11-25 02:17:00
7:24 PM,28.9,28.0,96,30.10,2.5,SW,4.6,-,0.01,Snow,Light Snow,220,2013-11-25 02:24:00
7:43 PM,28.9,28.0,96,30.11,4.0,South,4.6,-,0.01,Snow,Light Snow,190,2013-11-25 02:43:00
7:53 PM,28.9,28.0,96,30.14,4.0,WSW,3.5,-,0.01,Snow,Light Snow,240,2013-11-25 02:53:00
8:23 PM,28.9,28.0,96,30.11,7.0,SSW,8.1,-,0.00,Snow,Light Snow,210,2013-11-25 03:23:00
8:53 PM,28.9,28.0,96,30.12,4.0,SSW,6.9,-,0.00,Snow,Light Snow,210,2013-11-25 03:53:00
9:30 PM,28.0,28.0,100,30.10,4.0,SSW,6.9,-,0.00,Snow,Light Snow,210,2013-11-25 04:30:00
9:50 PM,28.4,28.4,100,30.10,2.0,SSW,8.1,-,0.00,Snow,Light Snow,200,2013-11-25 04:50:00
9:53 PM,28.0,28.0,100,30.12,2.0,SSW,6.9,-,0.00,Snow,Light Snow,200,2013-11-25 04:53:00
10:01 PM,28.0,28.0,100,30.10,1.8,SSW,6.9,-,0.01,Snow,Light Snow,200,2013-11-25 05:01:00
10:09 PM,28.0,27.0,96,30.10,2.5,SSW,6.9,-,0.01,Snow,Light Snow,210,2013-11-25 05:09:00
10:18 PM,28.0,27.0,96,30.10,4.0,SSW,6.9,-,0.01,Snow,Light Snow,200,2013-11-25 05:18:00
10:40 PM,28.0,28.0,100,30.10,4.0,SSE,3.5,-,0.01,Snow,Light Snow,160,2013-11-25 05:40:00
10:53 PM,28.0,27.0,96,30.12,4.0,WSW,3.5,-,0.01,Snow,Light Snow,240,2013-11-25 05:53:00
11:53 PM,30.0,28.9,96,30.10,7.0,West,9.2,-,0.00,,Overcast,280,2013-11-25 06:53:00